Location: Robledo de Chavela
(40.5014°N, 4.2377°W)
Time: 20:44:13
(UTC+00:00)

USA 229 - Pass Details

Date: 18 April 2024
Orbit: 890 x 1322 km, 63.4° (Epoch: 15 May)

Event Time Altitude Azimuth Distance (km) Brightness Sun altitude
Rises 21:39:42 0° 229° (SW) 3,524 6.5 -26.9°
Reaches altitude 10° 21:42:12 10° 234° (SW) 2,616 5.8 -27.2°
Maximum altitude 21:48:07 53° 311° (NW) 1,188 4.2 -28.0°
Drops below altitude 10° 21:54:39 10° 27° (NNE) 2,869 6.2 -28.8°
Sets 21:57:31 0° 33° (NNE) 3,895 6.9 -29.1°
